| time (UTC) | temp C | wind direction | speed KPH | gust KPH | rain 1hr cm | rain 24hr cm | rain mn cm | humidity % | barometer mb |
| 20260504081541 | 5 | 131 | 0.0 | 0.0 | 0.00 | 0.00 | 0.00 | 92 | 1019.9 |
| 20260504081037 | 5 | 131 | 0.0 | 0.0 | 0.00 | 0.00 | 0.00 | 91 | 1019.8 |
| 20260504080534 | 5 | 131 | 0.0 | 0.0 | 0.00 | 0.00 | 0.00 | 91 | 1020.0 |
| 20260504050346 | 7 | 132 | 0.0 | 0.0 | 0.00 | 0.00 | 0.00 | 86 | 1020.2 |
| 20260504045844 | 7 | 132 | 0.0 | 0.0 | 0.00 | 0.00 | 0.00 | 86 | 1020.1 |
| 20260504045338 | 7 | 132 | 0.0 | 0.0 | 0.00 | 0.00 | 0.00 | 86 | 1020.2 |
| 20260504044836 | 7 | 132 | 0.0 | 0.0 | 0.00 | 0.00 | 0.00 | 85 | 1020.2 |
| 20260504044333 | 7 | 132 | 0.0 | 0.0 | 0.00 | 0.00 | 0.00 | 85 | 1020.2 |
| 20260504043830 | 7 | 132 | 0.0 | 0.0 | 0.00 | 0.00 | 0.00 | 85 | 1020.3 |
| 20260504043327 | 7 | 132 | 0.0 | 0.0 | 0.00 | 0.00 | 0.00 | 85 | 1020.2 |
| 20260504042824 | 8 | 132 | 0.0 | 0.0 | 0.00 | 0.00 | 0.00 | 84 | 1020.2 |
| 20260504042320 | 8 | 132 | 0.0 | 0.0 | 0.00 | 0.00 | 0.00 | 84 | 1020.1 |
| 20260504041817 | 8 | 131 | 0.0 | 0.0 | 0.00 | 0.00 | 0.00 | 84 | 1020.3 |
| 20260504041313 | 8 | 131 | 0.0 | 0.0 | 0.00 | 0.00 | 0.00 | 84 | 1020.3 |
| 20260504040809 | 8 | 131 | 0.0 | 0.0 | 0.00 | 0.00 | 0.00 | 83 | 1020.3 |
| 20260504040307 | 8 | 131 | 0.0 | 0.0 | 0.00 | 0.00 | 0.00 | 83 | 1020.3 |
| 20260504035803 | 8 | 131 | 0.0 | 0.0 | 0.00 | 0.00 | 0.00 | 83 | 1020.4 |
| 20260504035300 | 8 | 131 | 0.0 | 0.0 | 0.00 | 0.00 | 0.00 | 83 | 1020.3 |
| 20260504034757 | 8 | 131 | 0.0 | 0.0 | 0.00 | 0.00 | 0.00 | 82 | 1020.2 |
| 20260504034255 | 8 | 131 | 0.0 | 0.0 | 0.00 | 0.00 | 0.00 | 82 | 1020.1 |
| 20260504033752 | 8 | 131 | 0.0 | 0.0 | 0.00 | 0.00 | 0.00 | 82 | 1020.3 |
| 20260504033250 | 8 | 131 | 0.0 | 0.0 | 0.00 | 0.00 | 0.00 | 81 | 1020.4 |
| 20260504032746 | 9 | 131 | 0.0 | 0.0 | 0.00 | 0.00 | 0.00 | 81 | 1020.4 |
| 20260504032243 | 9 | 132 | 0.0 | 0.0 | 0.00 | 0.00 | 0.00 | 81 | 1020.4 |
| 20260504031740 | 9 | 132 | 0.0 | 0.0 | 0.00 | 0.00 | 0.00 | 80 | 1020.2 |
| 20260504031238 | 9 | 132 | 0.0 | 1.6 | 0.00 | 0.00 | 0.00 | 80 | 1020.3 |
| 20260504030733 | 9 | 131 | 0.0 | 0.0 | 0.00 | 0.00 | 0.00 | 79 | 1020.2 |
| 20260504030231 | 9 | 131 | 0.0 | 1.6 | 0.00 | 0.00 | 0.00 | 79 | 1020.3 |
| 20260504025727 | 9 | 133 | 0.0 | 1.6 | 0.00 | 0.00 | 0.00 | 78 | 1020.2 |
| 20260504025224 | 9 | 133 | 0.0 | 0.0 | 0.00 | 0.00 | 0.00 | 78 | 1020.2 |
| 20260504024721 | 10 | 133 | 0.0 | 0.0 | 0.00 | 0.00 | 0.00 | 78 | 1020.1 |
| 20260504024217 | 10 | 133 | 0.0 | 0.0 | 0.00 | 0.00 | 0.00 | 77 | 1020.3 |
| 20260504023714 | 10 | 133 | 0.0 | 0.0 | 0.00 | 0.00 | 0.00 | 77 | 1020.2 |
| 20260504023210 | 10 | 133 | 0.0 | 0.0 | 0.00 | 0.00 | 0.00 | 77 | 1020.1 |
| 20260504022707 | 10 | 133 | 0.0 | 0.0 | 0.00 | 0.00 | 0.00 | 76 | 1019.9 |
| 20260504022203 | 10 | 133 | 0.0 | 0.0 | 0.00 | 0.00 | 0.00 | 76 | 1019.9 |
| 20260504021701 | 10 | 133 | 0.0 | 0.0 | 0.00 | 0.00 | 0.00 | 75 | 1020.1 |
| 20260504021157 | 10 | 133 | 0.0 | 0.0 | 0.00 | 0.00 | 0.00 | 75 | 1019.9 |
| 20260504020654 | 10 | 133 | 0.0 | 0.0 | 0.00 | 0.00 | 0.00 | 74 | 1019.8 |
| 20260504020150 | 10 | 133 | 0.0 | 0.0 | 0.00 | 0.00 | 0.00 | 73 | 1019.8 |
| 20260504015647 | 11 | 133 | 0.0 | 0.0 | 0.00 | 0.00 | 0.00 | 73 | 1019.5 |
| 20260504015143 | 11 | 133 | 0.0 | 0.0 | 0.00 | 0.00 | 0.00 | 72 | 1019.5 |
| 20260504014639 | 11 | 133 | 0.0 | 0.0 | 0.00 | 0.00 | 0.00 | 71 | 1019.3 |
| 20260504014136 | 11 | 133 | 0.0 | 0.0 | 0.00 | 0.00 | 0.00 | 70 | 1019.4 |
| 20260504013634 | 11 | 133 | 0.0 | 0.0 | 0.00 | 0.00 | 0.00 | 69 | 1019.3 |
| 20260504013131 | 12 | 133 | 0.0 | 0.0 | 0.00 | 0.00 | 0.00 | 68 | 1019.0 |
| 20260504012628 | 12 | 133 | 0.0 | 0.0 | 0.00 | 0.00 | 0.00 | 67 | 1019.2 |
| 20260504012126 | 12 | 133 | 0.0 | 1.6 | 0.00 | 0.00 | 0.00 | 67 | 1019.1 |
| 20260504011622 | 12 | 137 | 1.6 | 1.6 | 0.00 | 0.00 | 0.00 | 66 | 1019.2 |
| 20260504011119 | 13 | 137 | 0.0 | 0.0 | 0.00 | 0.00 | 0.00 | 66 | 1019.1 |
| 20260504010615 | 13 | 137 | 0.0 | 0.0 | 0.00 | 0.00 | 0.00 | 65 | 1018.9 |
| 20260504010111 | 13 | 137 | 0.0 | 0.0 | 0.00 | 0.00 | 0.00 | 63 | 1019.0 |
| 20260504005608 | 13 | 137 | 0.0 | 0.0 | 0.00 | 0.00 | 0.00 | 62 | 1018.8 |
| 20260504005105 | 13 | 137 | 0.0 | 1.6 | 0.00 | 0.00 | 0.00 | 61 | 1018.7 |
| 20260504004603 | 14 | 137 | 1.6 | 1.6 | 0.00 | 0.00 | 0.00 | 60 | 1018.9 |
| 20260504004100 | 14 | 137 | 0.0 | 1.6 | 0.00 | 0.00 | 0.00 | 58 | 1018.8 |
| 20260504003556 | 14 | 138 | 0.0 | 0.0 | 0.00 | 0.00 | 0.00 | 58 | 1018.8 |
| 20260504003053 | 15 | 137 | 0.0 | 1.6 | 0.00 | 0.00 | 0.00 | 57 | 1019.0 |
| 20260504002549 | 15 | 137 | 0.0 | 1.6 | 0.00 | 0.00 | 0.00 | 56 | 1018.6 |
| 20260504002047 | 15 | 137 | 0.0 | 1.6 | 0.00 | 0.00 | 0.00 | 55 | 1018.5 |
| 20260504001545 | 15 | 137 | 0.0 | 1.6 | 0.00 | 0.00 | 0.00 | 53 | 1018.6 |
| 20260504001040 | 16 | 137 | 0.0 | 1.6 | 0.00 | 0.00 | 0.00 | 52 | 1018.4 |
| 20260504000538 | 16 | 137 | 1.6 | 1.6 | 0.00 | 0.00 | 0.00 | 51 | 1018.6 |
| 20260504000035 | 16 | 91 | 1.6 | 1.6 | 0.00 | 0.00 | 0.00 | 49 | 1018.6 |
| 20260503235533 | 17 | 136 | 1.6 | 1.6 | 0.00 | 0.00 | 0.00 | 48 | 1018.4 |
| 20260503235030 | 17 | 142 | 0.0 | 1.6 | 0.00 | 0.00 | 0.00 | 47 | 1018.5 |
| 20260503234527 | 17 | 141 | 1.6 | 1.6 | 0.00 | 0.00 | 0.00 | 46 | 1018.4 |
| 20260503234026 | 18 | 138 | 0.0 | 1.6 | 0.00 | 0.00 | 0.00 | 45 | 1018.3 |
| 20260503233521 | 18 | 137 | 0.0 | 1.6 | 0.00 | 0.00 | 0.00 | 43 | 1018.3 |
| 20260503233018 | 19 | 134 | 1.6 | 3.2 | 0.00 | 0.00 | 0.00 | 42 | 1018.2 |
| 20260503232515 | 20 | 107 | 0.0 | 3.2 | 0.00 | 0.00 | 0.00 | 40 | 1018.3 |
| 20260503232012 | 21 | 97 | 0.0 | 1.6 | 0.00 | 0.00 | 0.00 | 38 | 1018.4 |
| 20260503231510 | 21 | 109 | 1.6 | 6.4 | 0.00 | 0.00 | 0.00 | 37 | 1018.4 |
| 20260503231006 | 21 | 347 | 1.6 | 3.2 | 0.00 | 0.00 | 0.00 | 37 | 1018.5 |
| 20260503230503 | 21 | 347 | 6.4 | 9.7 | 0.00 | 0.00 | 0.00 | 37 | 1018.5 |
| 20260503230001 | 21 | 238 | 0.0 | 0.0 | 0.00 | 0.00 | 0.00 | 38 | 1018.3 |
| 20260503225457 | 21 | 163 | 1.6 | 4.8 | 0.00 | 0.00 | 0.00 | 36 | 1018.6 |
| 20260503224952 | 21 | 325 | 3.2 | 16.1 | 0.00 | 0.00 | 0.00 | 36 | 1018.5 |
| 20260503224450 | 22 | 69 | 0.0 | 1.6 | 0.00 | 0.00 | 0.00 | 39 | 1018.7 |
| 20260503223948 | 22 | 20 | 1.6 | 3.2 | 0.00 | 0.00 | 0.00 | 38 | 1018.6 |
| 20260503223445 | 21 | 151 | 1.6 | 3.2 | 0.00 | 0.00 | 0.00 | 36 | 1018.6 |
| 20260503222941 | 22 | 299 | 1.6 | 4.8 | 0.00 | 0.00 | 0.00 | 36 | 1018.6 |
| 20260503222440 | 22 | 20 | 1.6 | 4.8 | 0.00 | 0.00 | 0.00 | 35 | 1018.6 |
| 20260503221937 | 22 | 331 | 3.2 | 4.8 | 0.00 | 0.00 | 0.00 | 36 | 1018.5 |
| 20260503221435 | 22 | 2 | 1.6 | 4.8 | 0.00 | 0.00 | 0.00 | 35 | 1018.4 |
| 20260503220932 | 22 | 333 | 6.4 | 11.3 | 0.00 | 0.00 | 0.00 | 34 | 1018.5 |
| 20260503220428 | 22 | 309 | 1.6 | 4.8 | 0.00 | 0.00 | 0.00 | 34 | 1018.7 |
| 20260503215925 | 22 | 260 | 6.4 | 12.9 | 0.00 | 0.00 | 0.00 | 33 | 1018.7 |
| 20260503215422 | 22 | 303 | 3.2 | 4.8 | 0.00 | 0.00 | 0.00 | 33 | 1018.7 |
| 20260503214920 | 22 | 257 | 1.6 | 6.4 | 0.00 | 0.00 | 0.00 | 33 | 1018.8 |
| 20260503214417 | 22 | 235 | 6.4 | 6.4 | 0.00 | 0.00 | 0.00 | 32 | 1018.9 |
| 20260503213915 | 22 | 16 | 1.6 | 3.2 | 0.00 | 0.00 | 0.00 | 32 | 1018.9 |
| 20260503213412 | 22 | 139 | 0.0 | 3.2 | 0.00 | 0.00 | 0.00 | 32 | 1018.8 |
| 20260503212909 | 21 | 303 | 6.4 | 11.3 | 0.00 | 0.00 | 0.00 | 32 | 1018.9 |
| 20260503212406 | 22 | 265 | 6.4 | 11.3 | 0.00 | 0.00 | 0.00 | 32 | 1018.9 |
| 20260503211904 | 22 | 256 | 0.0 | 6.4 | 0.00 | 0.00 | 0.00 | 33 | 1018.9 |
| 20260503211400 | 21 | 248 | 3.2 | 9.7 | 0.00 | 0.00 | 0.00 | 33 | 1019.0 |
| 20260503210855 | 22 | 332 | 8.0 | 16.1 | 0.00 | 0.00 | 0.00 | 34 | 1019.0 |
| 20260503210353 | 22 | 113 | 0.0 | 1.6 | 0.00 | 0.00 | 0.00 | 35 | 1019.0 |
| 20260503205847 | 22 | 20 | 1.6 | 4.8 | 0.00 | 0.00 | 0.00 | 35 | 1019.0 |
| 20260503205345 | 22 | 289 | 1.6 | 9.7 | 0.00 | 0.00 | 0.00 | 37 | 1019.1 |
| 20260503204841 | 21 | 331 | 4.8 | 6.4 | 0.00 | 0.00 | 0.00 | 36 | 1019.0 |
| 20260503204338 | 22 | 330 | 6.4 | 11.3 | 0.00 | 0.00 | 0.00 | 36 | 1019.4 |
| 20260503203835 | 21 | 344 | 6.4 | 12.9 | 0.00 | 0.00 | 0.00 | 35 | 1019.2 |
| 20260503203333 | 22 | 339 | 4.8 | 11.3 | 0.00 | 0.00 | 0.00 | 36 | 1019.4 |
| 20260503202830 | 22 | 308 | 4.8 | 4.8 | 0.00 | 0.00 | 0.00 | 37 | 1019.3 |
| 20260503202328 | 21 | 31 | 3.2 | 9.7 | 0.00 | 0.00 | 0.00 | 37 | 1019.5 |
| 20260503201826 | 22 | 31 | 3.2 | 4.8 | 0.00 | 0.00 | 0.00 | 37 | 1019.7 |
| 20260503201322 | 21 | 307 | 6.4 | 9.7 | 0.00 | 0.00 | 0.00 | 37 | 1019.7 |
| 20260503200820 | 21 | 233 | 1.6 | 12.9 | 0.00 | 0.00 | 0.00 | 37 | 1019.9 |
| 20260503200316 | 21 | 270 | 3.2 | 6.4 | 0.00 | 0.00 | 0.00 | 37 | 1019.9 |
| 20260503195813 | 21 | 320 | 9.7 | 14.5 | 0.00 | 0.00 | 0.00 | 37 | 1020.0 |
| 20260503195310 | 21 | 337 | 1.6 | 9.7 | 0.00 | 0.00 | 0.00 | 37 | 1020.0 |
| 20260503194807 | 22 | 252 | 8.0 | 9.7 | 0.00 | 0.00 | 0.00 | 37 | 1020.1 |
| 20260503194303 | 21 | 37 | 3.2 | 6.4 | 0.00 | 0.00 | 0.00 | 38 | 1020.3 |
| 20260503193759 | 21 | 215 | 1.6 | 6.4 | 0.00 | 0.00 | 0.00 | 37 | 1020.5 |
| 20260503193255 | 21 | 12 | 4.8 | 6.4 | 0.00 | 0.00 | 0.00 | 37 | 1020.4 |
| 20260503192751 | 20 | 292 | 1.6 | 3.2 | 0.00 | 0.00 | 0.00 | 37 | 1021.0 |
| 20260503192246 | 21 | 312 | 16.1 | 24.1 | 0.00 | 0.00 | 0.00 | 37 | 1020.9 |
| 20260503191743 | 21 | 315 | 6.4 | 11.3 | 0.00 | 0.00 | 0.00 | 37 | 1021.1 |
| 20260503191240 | 20 | 316 | 4.8 | 11.3 | 0.00 | 0.00 | 0.00 | 37 | 1021.1 |
| 20260503190737 | 20 | 328 | 4.8 | 4.8 | 0.00 | 0.00 | 0.00 | 37 | 1021.1 |
| 20260503190234 | 20 | 304 | 3.2 | 6.4 | 0.00 | 0.00 | 0.00 | 38 | 1021.3 |
| 20260503185731 | 20 | 299 | 6.4 | 14.5 | 0.00 | 0.00 | 0.00 | 38 | 1021.3 |
| 20260503185227 | 20 | 328 | 1.6 | 9.7 | 0.00 | 0.00 | 0.00 | 38 | 1021.2 |
| 20260503184721 | 20 | 328 | 6.4 | 9.7 | 0.00 | 0.00 | 0.00 | 38 | 1021.5 |
| 20260503184218 | 21 | 301 | 11.3 | 14.5 | 0.00 | 0.00 | 0.00 | 39 | 1021.4 |
| 20260503183714 | 20 | 161 | 0.0 | 4.8 | 0.00 | 0.00 | 0.00 | 39 | 1021.5 |
| 20260503183212 | 20 | 323 | 3.2 | 6.4 | 0.00 | 0.00 | 0.00 | 39 | 1021.5 |
| 20260503182710 | 20 | 327 | 3.2 | 9.7 | 0.00 | 0.00 | 0.00 | 39 | 1021.5 |
| 20260503182208 | 20 | 291 | 6.4 | 11.3 | 0.00 | 0.00 | 0.00 | 40 | 1021.6 |
| 20260503181704 | 19 | 2 | 4.8 | 12.9 | 0.00 | 0.00 | 0.00 | 40 | 1021.5 |
| 20260503181201 | 20 | 305 | 4.8 | 12.9 | 0.00 | 0.00 | 0.00 | 40 | 1021.5 |
| 20260503180658 | 20 | 317 | 8.0 | 14.5 | 0.00 | 0.00 | 0.00 | 40 | 1021.7 |
| 20260503180157 | 20 | 337 | 3.2 | 4.8 | 0.00 | 0.00 | 0.00 | 41 | 1021.7 |
| 20260503175653 | 19 | 200 | 1.6 | 4.8 | 0.00 | 0.00 | 0.00 | 42 | 1021.8 |
| 20260503175150 | 20 | 211 | 1.6 | 4.8 | 0.00 | 0.00 | 0.00 | 42 | 1021.6 |
| 20260503174646 | 20 | 313 | 6.4 | 9.7 | 0.00 | 0.00 | 0.00 | 42 | 1021.6 |
| 20260503174144 | 20 | 248 | 1.6 | 3.2 | 0.00 | 0.00 | 0.00 | 42 | 1021.7 |
| 20260503173639 | 20 | 331 | 3.2 | 4.8 | 0.00 | 0.00 | 0.00 | 43 | 1021.8 |
| 20260503173136 | 19 | 14 | 6.4 | 11.3 | 0.00 | 0.00 | 0.00 | 43 | 1021.9 |
| 20260503172633 | 19 | 292 | 1.6 | 3.2 | 0.00 | 0.00 | 0.00 | 44 | 1022.1 |
| 20260503172130 | 18 | 132 | 0.0 | 3.2 | 0.00 | 0.00 | 0.00 | 45 | 1022.2 |
| 20260503171626 | 18 | 142 | 3.2 | 11.3 | 0.00 | 0.00 | 0.00 | 44 | 1022.2 |
| 20260503171124 | 18 | 66 | 1.6 | 6.4 | 0.00 | 0.00 | 0.00 | 45 | 1022.3 |
| 20260503170621 | 18 | 359 | 0.0 | 4.8 | 0.00 | 0.00 | 0.00 | 46 | 1022.3 |
| 20260503170117 | 18 | 290 | 8.0 | 11.3 | 0.00 | 0.00 | 0.00 | 47 | 1022.5 |
| 20260503151012 | 15 | 268 | 1.6 | 6.4 | 0.00 | 0.00 | 0.00 | 64 | 1023.3 |
| 20260503150508 | 15 | 276 | 6.4 | 9.7 | 0.00 | 0.00 | 0.00 | 67 | 1023.3 |
| 20260503131355 | 11 | 204 | 0.0 | 1.6 | 0.00 | 0.00 | 0.00 | 97 | 1022.7 |
| 20260503130853 | 11 | 89 | 0.0 | 0.0 | 0.00 | 0.00 | 0.00 | 96 | 1022.7 |
| 20260503130350 | 11 | 89 | 0.0 | 0.0 | 0.00 | 0.00 | 0.00 | 96 | 1022.9 |
| 20260503110744 | 2 | 90 | 0.0 | 0.0 | 0.00 | 0.00 | 0.00 | 96 | 1022.1 |
| 20260503110241 | 2 | 90 | 0.0 | 0.0 | 0.00 | 0.00 | 0.00 | 96 | 1021.9 |
| 20260503100207 | 2 | 88 | 0.0 | 0.0 | 0.00 | 0.00 | 0.00 | 96 | 1021.0 |
| 20260503090131 | 3 | 88 | 0.0 | 0.0 | 0.00 | 0.00 | 0.00 | 96 | 1020.5 |